CZ-6A DEB

Satellite information

Favourite Embed

Satellite Type and Status

DEBRISIN ORBIT

Key statistics

Satellite CZ-6A DEB at a glance.

Uptime

1077

Days in orbit

Revolutions

≈ 14.4

Per day

Orbit

SSO

Sun Synchronous Orbit

Inclination

98.8

Latest

Satellite identification and parameters

Extended collection of information and parameters for CZ-6A DEB.

Object identification

Identified? True

Debris? True

Object name: CZ-6A DEB

International designator: 2022-151WB

Object number (NORAD): 55210

Object ID (CCSDS): 55210

Country: PEOPLES REPUBLIC OF CHINA (PRC)

Current information (Y/N): Y

RCS size: SMALL

Orbital parameters

Period: 100.306 minutes

Inclination: 98.7661 deg

SMA: 7151.169 km

Apoapsis: 800.653 km

Periapsis: 745.416 km

RAAN: 320.4723 deg

Eccentricy: 0.00386215

Argument of periapsis: 280.93 deg

Mean anomaly: 78.7541 deg

Mean motion: 14.35612246 rev/day

Mean motion (dot): 0.00007018 rev/day2

B* drag term: 0.0024273242 1/REarth

Two-line elements (TLE)

Creation date: Oct. 23, 2025, 2:46 a.m.

Reference frame: TEME

Reference center: EARTH

Epoch: Oct. 22, 2025, 12:27 p.m. UTC

TLE line 0: 0 CZ-6A DEB

TLE line 1: 1 55210U 22151WB 25295.51932368 .00007018 00000-0 24273-2 0 9990

TLE line 2: 2 55210 98.7661 320.4723 0038621 280.9300 78.7541 14.35612246147788

Live tracking on map

Real-time ground track for satellite CZ-6A DEB.

In-orbit conjunctions

A list of the most updated potential collisions computed for object CZ-6A DEB.

Target Orbit TCA Probability of collision Miss distance Type
CZ-6A DEB LEO 2025-04-10 10:33:33 0.0001316397 131.0 (m) DEBRIS
METEOR 2-8 DEB LEO 2025-01-16 19:29:49 0.0001307063 154.0 (m) DEBRIS
ADEOS 2 SSO 2025-01-16 01:52:18 0.0002361313 475.0 (m) PAYLOAD
METEOR 2-6 LEO 2024-08-16 09:22:49 0.0001945668 50.0 (m) PAYLOAD

Associated space launch

Chinese satellite reported for atmospheric/ocean/environmental/spatial parameter research purposes, details TBD.

CZ-6A DEB was lifted into orbit during the mission ‘Long March 6A | Yunhai 3’, on board a Long March 6A space rocket.

The launch took place on Nov. 11, 2022, 10:52 p.m. from Launch Complex 9A.

For more information about the launch, click the button.

Launch to space Long March 6A | Yunhai 3
Long March 6A | Yunhai 3

Agency: N/A

Status: Launch Successful

Launch date: Nov. 11, 2022, 10:52 p.m. UTC

Rocket: Long March 6A

Launch pad: Launch Complex 9A

Location: Taiyuan Satellite Launch Center, People's Republic of China

...

Latest news about this satellite

There are no fresh news available about this satellite. Check back as we update our databases every day.


Newsletter sign-up

Weekly statistics, charts and insights to help you stay on top of the space industry.